LVS137 SAAI-SADF

Flight info

Callsign LVS137
Flight time 1h 3m
Altitude 7000
Route DCT PTA ILM PAL
Aircraft ECHO/L-SFG/C

Departure

Time 2026-04-23 20:22
Airport Punta Indio Naval Air Base (SAAI)

Arrival

Time 2026-04-23 21:26
Airport San Fernando Airport (SADF)
Time Latitude Longitude Altitude Speed Heading
2026-04-23 20:14 -35.35196 -57.29269 58 ft 0 kts 52°
2026-04-23 20:17 -35.35198 -57.29237 58 ft 13 kts 108°
2026-04-23 20:18 -35.35237 -57.29185 54 ft 5 kts 160°
2026-04-23 20:18 -35.35271 -57.29188 58 ft 0 kts 166°
2026-04-23 20:18 -35.35286 -57.29128 58 ft 19 kts 101°
2026-04-23 20:18 -35.35315 -57.29036 55 ft 10 kts 127°
2026-04-23 20:19 -35.35361 -57.29024 58 ft 12 kts 211°
2026-04-23 20:19 -35.35450 -57.29139 54 ft 33 kts 226°
2026-04-23 20:19 -35.35644 -57.29390 54 ft 40 kts 227°
2026-04-23 20:19 -35.35821 -57.29618 54 ft 35 kts 227°
2026-04-23 20:20 -35.35896 -57.29726 56 ft 3 kts 233°
2026-04-23 20:20 -35.35907 -57.29728 56 ft 0 kts 96°
2026-04-23 20:20 -35.35893 -57.29711 56 ft 0 kts 46°
2026-04-23 20:21 -35.35812 -57.29612 52 ft 46 kts 48°
2026-04-23 20:22 -35.35506 -57.29186 159 ft 74 kts 50°
2026-04-23 20:22 -35.35195 -57.28721 474 ft 68 kts 42°
2026-04-23 20:22 -35.34874 -57.28289 755 ft 72 kts 43°
2026-04-23 20:22 -35.34456 -57.27898 961 ft 77 kts 17°
2026-04-23 20:23 -35.34031 -57.27803 1381 ft 46 kts
2026-04-23 20:23 -35.33572 -57.27983 1392 ft 81 kts 327°
2026-04-23 20:23 -35.33218 -57.28421 1721 ft 69 kts 305°
2026-04-23 20:23 -35.32913 -57.28898 1947 ft 72 kts 308°
2026-04-23 20:24 -35.32615 -57.29390 2202 ft 72 kts 306°
2026-04-23 20:24 -35.32322 -57.29892 2431 ft 73 kts 304°
2026-04-23 20:24 -35.32028 -57.30401 2676 ft 73 kts 302°
2026-04-23 20:24 -35.31737 -57.30916 2907 ft 74 kts 300°
2026-04-23 20:25 -35.31437 -57.31444 3127 ft 76 kts 300°
2026-04-23 20:25 -35.31136 -57.31981 3356 ft 77 kts 299°
2026-04-23 20:25 -35.30830 -57.32520 3556 ft 77 kts 299°
2026-04-23 20:25 -35.30530 -57.33053 3758 ft 77 kts 298°
2026-04-23 20:26 -35.30220 -57.33599 3988 ft 77 kts 297°
2026-04-23 20:26 -35.29920 -57.34132 4193 ft 77 kts 297°
2026-04-23 20:26 -35.29614 -57.34672 4396 ft 77 kts 296°
2026-04-23 20:26 -35.29309 -57.35210 4598 ft 77 kts 295°
2026-04-23 20:27 -35.29004 -57.35745 4809 ft 76 kts 296°
2026-04-23 20:27 -35.28701 -57.36277 5011 ft 76 kts 295°
2026-04-23 20:27 -35.28398 -57.36807 5211 ft 75 kts 294°
2026-04-23 20:27 -35.28097 -57.37332 5396 ft 75 kts 295°
2026-04-23 20:28 -35.27800 -57.37854 5578 ft 75 kts 295°
2026-04-23 20:28 -35.27502 -57.38371 5759 ft 74 kts 295°
2026-04-23 20:28 -35.27210 -57.38883 5944 ft 73 kts 295°
2026-04-23 20:28 -35.26920 -57.39388 6129 ft 72 kts 294°
2026-04-23 20:29 -35.26631 -57.39891 6304 ft 72 kts 295°
2026-04-23 20:29 -35.26344 -57.40392 6477 ft 72 kts 294°
2026-04-23 20:29 -35.26062 -57.40881 6644 ft 71 kts 294°
2026-04-23 20:29 -35.25779 -57.41375 6797 ft 71 kts 295°
2026-04-23 20:30 -35.25495 -57.41868 6952 ft 71 kts 294°
2026-04-23 20:30 -35.24914 -57.42884 7161 ft 81 kts 296°
2026-04-23 20:30 -35.24567 -57.43481 7170 ft 90 kts 297°
2026-04-23 20:31 -35.24206 -57.44096 7168 ft 88 kts 297°
2026-04-23 20:31 -35.23856 -57.44700 7169 ft 86 kts 297°
2026-04-23 20:31 -35.23508 -57.45299 7169 ft 86 kts 296°
2026-04-23 20:31 -35.23164 -57.45896 7167 ft 86 kts 297°
2026-04-23 20:32 -35.22824 -57.46485 7168 ft 86 kts 296°
2026-04-23 20:32 -35.22479 -57.47082 7165 ft 86 kts 296°
2026-04-23 20:32 -35.22134 -57.47680 7168 ft 86 kts 296°
2026-04-23 20:32 -35.21789 -57.48277 7167 ft 86 kts 296°
2026-04-23 20:33 -35.21445 -57.48871 7165 ft 86 kts 296°
2026-04-23 20:33 -35.21101 -57.49468 7167 ft 86 kts 296°
2026-04-23 20:33 -35.20755 -57.50066 7165 ft 86 kts 296°
2026-04-23 20:33 -35.20410 -57.50663 7164 ft 86 kts 297°
2026-04-23 20:34 -35.20065 -57.51259 7165 ft 86 kts 296°
2026-04-23 20:34 -35.19720 -57.51854 7167 ft 86 kts 297°
2026-04-23 20:34 -35.19377 -57.52447 7163 ft 86 kts 297°
2026-04-23 20:34 -35.19036 -57.53034 7163 ft 86 kts 297°
2026-04-23 20:35 -35.18690 -57.53632 7163 ft 86 kts 297°
2026-04-23 20:35 -35.18346 -57.54226 7164 ft 86 kts 296°
2026-04-23 20:35 -35.18000 -57.54822 7162 ft 86 kts 297°
2026-04-23 20:35 -35.17656 -57.55416 7164 ft 86 kts 297°
2026-04-23 20:36 -35.17310 -57.56011 7164 ft 86 kts 297°
2026-04-23 20:36 -35.16963 -57.56609 7167 ft 86 kts 297°
2026-04-23 20:36 -35.16615 -57.57209 7170 ft 87 kts 297°
2026-04-23 20:36 -35.16265 -57.57811 7170 ft 87 kts 297°
2026-04-23 20:37 -35.15916 -57.58413 7173 ft 87 kts 297°
2026-04-23 20:37 -35.15685 -57.58811 7173 ft 87 kts 297°
2026-04-23 20:37 -35.15337 -57.59410 7171 ft 87 kts 297°
2026-04-23 20:37 -35.14987 -57.60012 7173 ft 87 kts 297°
2026-04-23 20:38 -35.14524 -57.60810 7173 ft 87 kts 297°
2026-04-23 20:38 -35.14175 -57.61409 7172 ft 86 kts 297°
2026-04-23 20:38 -35.13945 -57.61807 7173 ft 86 kts 297°
2026-04-23 20:38 -35.13596 -57.62407 7173 ft 86 kts 297°
2026-04-23 20:39 -35.13249 -57.63006 7171 ft 86 kts 298°
2026-04-23 20:39 -35.12900 -57.63605 7174 ft 87 kts 297°
2026-04-23 20:39 -35.12550 -57.64205 7174 ft 87 kts 297°
2026-04-23 20:39 -35.12202 -57.64804 7175 ft 87 kts 297°
2026-04-23 20:40 -35.11856 -57.65397 7175 ft 86 kts 297°
2026-04-23 20:40 -35.11508 -57.65995 7175 ft 86 kts 298°
2026-04-23 20:40 -35.11160 -57.66594 7178 ft 86 kts 297°
2026-04-23 20:40 -35.10810 -57.67194 7178 ft 87 kts 297°
2026-04-23 20:41 -35.10461 -57.67794 7178 ft 87 kts 298°
2026-04-23 20:41 -35.10111 -57.68395 7179 ft 87 kts 297°
2026-04-23 20:41 -35.09760 -57.68995 7183 ft 87 kts 297°
2026-04-23 20:41 -35.09410 -57.69596 7183 ft 87 kts 298°
2026-04-23 20:42 -35.09060 -57.70198 7182 ft 87 kts 297°
2026-04-23 20:42 -35.08713 -57.70791 7182 ft 87 kts 298°
2026-04-23 20:42 -35.08363 -57.71393 7182 ft 87 kts 298°
2026-04-23 20:42 -35.08011 -57.71996 7183 ft 87 kts 298°
2026-04-23 20:43 -35.07661 -57.72597 7182 ft 87 kts 298°
2026-04-23 20:43 -35.07311 -57.73197 7183 ft 87 kts 298°
2026-04-23 20:43 -35.06960 -57.73799 7183 ft 87 kts 298°
2026-04-23 20:43 -35.06609 -57.74401 7186 ft 87 kts 298°
2026-04-23 20:44 -35.06259 -57.75001 7184 ft 87 kts 297°
2026-04-23 20:44 -35.05907 -57.75602 7185 ft 87 kts 297°
2026-04-23 20:44 -35.05562 -57.76195 7188 ft 87 kts 297°
2026-04-23 20:44 -35.05205 -57.76805 7184 ft 87 kts 297°
2026-04-23 20:45 -35.04859 -57.77398 7186 ft 87 kts 298°
2026-04-23 20:45 -35.04508 -57.78000 7188 ft 87 kts 297°
2026-04-23 20:45 -35.04157 -57.78601 7188 ft 87 kts 298°
2026-04-23 20:45 -35.03805 -57.79203 7189 ft 87 kts 298°
2026-04-23 20:46 -35.03454 -57.79803 7190 ft 87 kts 298°
2026-04-23 20:46 -35.03103 -57.80405 7189 ft 87 kts 297°
2026-04-23 20:46 -35.02748 -57.81009 7193 ft 87 kts 298°
2026-04-23 20:46 -35.02396 -57.81613 7193 ft 88 kts 298°
2026-04-23 20:47 -35.02041 -57.82220 7194 ft 88 kts 297°
2026-04-23 20:47 -35.01686 -57.82827 7195 ft 88 kts 298°
2026-04-23 20:47 -35.01332 -57.83432 7195 ft 88 kts 298°
2026-04-23 20:47 -35.00976 -57.84041 7194 ft 88 kts 298°
2026-04-23 20:48 -35.00624 -57.84642 7194 ft 87 kts 298°
2026-04-23 20:48 -35.00272 -57.85244 7194 ft 87 kts 298°
2026-04-23 20:48 -34.99917 -57.85850 7195 ft 88 kts 298°
2026-04-23 20:48 -34.99567 -57.86450 7195 ft 88 kts 298°
2026-04-23 20:49 -34.99210 -57.87059 7193 ft 88 kts 298°
2026-04-23 20:49 -34.98853 -57.87667 7194 ft 88 kts 298°
2026-04-23 20:49 -34.98544 -57.88195 7193 ft 88 kts 298°
2026-04-23 20:49 -34.98186 -57.88806 7193 ft 89 kts 298°
2026-04-23 20:50 -34.97828 -57.89417 7194 ft 89 kts 298°
2026-04-23 20:50 -34.97456 -57.90020 7192 ft 90 kts 305°
2026-04-23 20:50 -34.97018 -57.90570 7191 ft 90 kts 306°
2026-04-23 20:50 -34.96602 -57.91109 7193 ft 89 kts 306°
2026-04-23 20:51 -34.96242 -57.91574 7192 ft 89 kts 305°
2026-04-23 20:51 -34.95816 -57.92125 7190 ft 89 kts 306°
2026-04-23 20:51 -34.95390 -57.92677 7193 ft 89 kts 306°
2026-04-23 20:51 -34.94965 -57.93227 7191 ft 89 kts 306°
2026-04-23 20:52 -34.94546 -57.93773 7188 ft 89 kts 306°
2026-04-23 20:52 -34.94120 -57.94322 7190 ft 89 kts 306°
2026-04-23 20:52 -34.93694 -57.94875 7190 ft 90 kts 306°
2026-04-23 20:52 -34.93265 -57.95430 7192 ft 90 kts 306°
2026-04-23 20:53 -34.92834 -57.95986 7194 ft 90 kts 306°
2026-04-23 20:53 -34.92405 -57.96544 7190 ft 90 kts 306°
2026-04-23 20:53 -34.91974 -57.97099 7194 ft 90 kts 307°
2026-04-23 20:53 -34.91547 -57.97654 7192 ft 90 kts 306°
2026-04-23 20:54 -34.91117 -57.98210 7192 ft 90 kts 306°
2026-04-23 20:54 -34.90688 -57.98763 7190 ft 90 kts 306°
2026-04-23 20:54 -34.90259 -57.99319 7189 ft 90 kts 306°
2026-04-23 20:54 -34.89831 -57.99872 7188 ft 90 kts 306°
2026-04-23 20:55 -34.89403 -58.00427 7185 ft 90 kts 306°
2026-04-23 20:55 -34.88974 -58.00981 7184 ft 90 kts 306°
2026-04-23 20:55 -34.88547 -58.01536 7181 ft 90 kts 306°
2026-04-23 20:55 -34.88119 -58.02088 7182 ft 90 kts 306°
2026-04-23 20:56 -34.87690 -58.02642 7181 ft 90 kts 307°
2026-04-23 20:56 -34.87261 -58.03194 7181 ft 90 kts 306°
2026-04-23 20:56 -34.86840 -58.03739 7181 ft 90 kts 307°
2026-04-23 20:56 -34.86411 -58.04293 7181 ft 90 kts 307°
2026-04-23 20:57 -34.85982 -58.04847 7176 ft 90 kts 307°
2026-04-23 20:57 -34.85551 -58.05403 7176 ft 90 kts 307°
2026-04-23 20:57 -34.85119 -58.05961 7177 ft 91 kts 307°
2026-04-23 20:57 -34.84684 -58.06522 7175 ft 91 kts 307°
2026-04-23 20:58 -34.84257 -58.07074 7175 ft 91 kts 307°
2026-04-23 20:58 -34.83822 -58.07634 7174 ft 91 kts 307°
2026-04-23 20:58 -34.83390 -58.08191 7171 ft 90 kts 306°
2026-04-23 20:58 -34.82960 -58.08748 7171 ft 91 kts 307°
2026-04-23 20:59 -34.82526 -58.09306 7172 ft 90 kts 307°
2026-04-23 20:59 -34.82093 -58.09864 7172 ft 91 kts 307°
2026-04-23 20:59 -34.81661 -58.10421 7169 ft 91 kts 307°
2026-04-23 20:59 -34.81229 -58.10978 7166 ft 90 kts 307°
2026-04-23 21:00 -34.80803 -58.11529 7167 ft 90 kts 306°
2026-04-23 21:00 -34.80370 -58.12086 7168 ft 91 kts 307°
2026-04-23 21:00 -34.79938 -58.12642 7162 ft 90 kts 307°
2026-04-23 21:00 -34.79505 -58.13200 7158 ft 91 kts 307°
2026-04-23 21:01 -34.79072 -58.13758 7157 ft 90 kts 307°
2026-04-23 21:01 -34.78642 -58.14312 7156 ft 90 kts 307°
2026-04-23 21:01 -34.78210 -58.14867 7161 ft 90 kts 307°
2026-04-23 21:01 -34.77777 -58.15424 7156 ft 90 kts 306°
2026-04-23 21:02 -34.77343 -58.15983 7159 ft 91 kts 307°
2026-04-23 21:02 -34.76912 -58.16539 7154 ft 90 kts 307°
2026-04-23 21:02 -34.76478 -58.17096 7154 ft 91 kts 307°
2026-04-23 21:02 -34.76047 -58.17652 7152 ft 90 kts 307°
2026-04-23 21:03 -34.75614 -58.18208 7151 ft 90 kts 307°
2026-04-23 21:03 -34.75182 -58.18764 7150 ft 91 kts 307°
2026-04-23 21:03 -34.74749 -58.19322 7152 ft 91 kts 307°
2026-04-23 21:03 -34.74322 -58.19869 7154 ft 90 kts 307°
2026-04-23 21:04 -34.73891 -58.20423 7152 ft 90 kts 307°
2026-04-23 21:04 -34.73462 -58.20974 7151 ft 90 kts 307°
2026-04-23 21:04 -34.73031 -58.21528 7151 ft 90 kts 307°
2026-04-23 21:04 -34.72600 -58.22082 7149 ft 90 kts 307°
2026-04-23 21:05 -34.72167 -58.22638 7152 ft 90 kts 307°
2026-04-23 21:05 -34.71735 -58.23193 7149 ft 90 kts 307°
2026-04-23 21:05 -34.71301 -58.23748 7151 ft 91 kts 307°
2026-04-23 21:05 -34.70966 -58.24373 7147 ft 86 kts 281°
2026-04-23 21:06 -34.70806 -58.25084 7095 ft 92 kts 284°
2026-04-23 21:06 -34.70605 -58.25838 6988 ft 97 kts 284°
2026-04-23 21:06 -34.70393 -58.26636 6881 ft 99 kts 284°
2026-04-23 21:06 -34.70185 -58.27425 6773 ft 100 kts 284°
2026-04-23 21:07 -34.69971 -58.28232 6661 ft 101 kts 284°
2026-04-23 21:07 -34.69757 -58.29044 6548 ft 101 kts 284°
2026-04-23 21:07 -34.69540 -58.29864 6420 ft 102 kts 284°
2026-04-23 21:07 -34.69321 -58.30692 6323 ft 103 kts 285°
2026-04-23 21:08 -34.69102 -58.31523 6198 ft 103 kts 284°
2026-04-23 21:08 -34.68880 -58.32358 6075 ft 104 kts 284°
2026-04-23 21:08 -34.68659 -58.33195 5949 ft 104 kts 284°
2026-04-23 21:08 -34.68437 -58.34040 5830 ft 105 kts 285°
2026-04-23 21:09 -34.68211 -58.34890 5702 ft 106 kts 285°
2026-04-23 21:09 -34.67989 -58.35724 5583 ft 104 kts 284°
2026-04-23 21:09 -34.67768 -58.36560 5444 ft 103 kts 284°
2026-04-23 21:09 -34.67565 -58.37330 5340 ft 103 kts 284°
2026-04-23 21:10 -34.67345 -58.38161 5218 ft 103 kts 284°
2026-04-23 21:10 -34.67124 -58.38996 5095 ft 104 kts 284°
2026-04-23 21:10 -34.66901 -58.39836 4971 ft 105 kts 285°
2026-04-23 21:10 -34.66677 -58.40678 4846 ft 105 kts 284°
2026-04-23 21:11 -34.66454 -58.41518 4717 ft 105 kts 285°
2026-04-23 21:11 -34.66231 -58.42361 4596 ft 104 kts 285°
2026-04-23 21:11 -34.66007 -58.43202 4471 ft 105 kts 284°
2026-04-23 21:11 -34.65782 -58.44052 4343 ft 106 kts 285°
2026-04-23 21:12 -34.65557 -58.44898 4219 ft 105 kts 285°
2026-04-23 21:12 -34.65331 -58.45750 4095 ft 106 kts 284°
2026-04-23 21:12 -34.65103 -58.46606 3974 ft 106 kts 285°
2026-04-23 21:12 -34.64879 -58.47452 3851 ft 107 kts 285°
2026-04-23 21:13 -34.64650 -58.48310 3727 ft 107 kts 285°
2026-04-23 21:13 -34.64420 -58.49175 3583 ft 107 kts 285°
2026-04-23 21:13 -34.64191 -58.50030 3463 ft 108 kts 285°
2026-04-23 21:13 -34.63965 -58.50885 3408 ft 104 kts 285°
2026-04-23 21:14 -34.63742 -58.51726 3355 ft 104 kts 285°
2026-04-23 21:14 -34.63525 -58.52542 3303 ft 103 kts 285°
2026-04-23 21:14 -34.63305 -58.53370 3243 ft 103 kts 285°
2026-04-23 21:14 -34.63085 -58.54196 3197 ft 102 kts 286°
2026-04-23 21:15 -34.62865 -58.55018 3144 ft 102 kts 286°
2026-04-23 21:15 -34.62650 -58.55828 3118 ft 101 kts 286°
2026-04-23 21:15 -34.62434 -58.56636 3090 ft 100 kts 286°
2026-04-23 21:15 -34.62218 -58.57446 3063 ft 100 kts 287°
2026-04-23 21:16 -34.62006 -58.58242 3037 ft 100 kts 287°
2026-04-23 21:16 -34.61792 -58.59044 3008 ft 100 kts 287°
2026-04-23 21:16 -34.61578 -58.59839 3007 ft 98 kts 287°
2026-04-23 21:16 -34.61369 -58.60628 3005 ft 98 kts 287°
2026-04-23 21:17 -34.61153 -58.61413 3000 ft 97 kts 290°
2026-04-23 21:17 -34.60783 -58.62104 2998 ft 98 kts 304°
2026-04-23 21:17 -34.60409 -58.62787 2998 ft 98 kts 302°
2026-04-23 21:17 -34.60016 -58.63502 2893 ft 105 kts 303°
2026-04-23 21:18 -34.59606 -58.64249 2781 ft 107 kts 303°
2026-04-23 21:18 -34.59193 -58.65007 2659 ft 107 kts 303°
2026-04-23 21:18 -34.58784 -58.65756 2537 ft 106 kts 304°
2026-04-23 21:18 -34.58390 -58.66484 2498 ft 99 kts 303°
2026-04-23 21:19 -34.58016 -58.67179 2494 ft 97 kts 304°
2026-04-23 21:19 -34.57649 -58.67856 2490 ft 97 kts 304°
2026-04-23 21:19 -34.57281 -58.68535 2489 ft 96 kts 304°
2026-04-23 21:19 -34.56912 -58.69215 2490 ft 96 kts 304°
2026-04-23 21:20 -34.56548 -58.69884 2492 ft 96 kts 304°
2026-04-23 21:20 -34.56147 -58.70524 2490 ft 94 kts 321°
2026-04-23 21:20 -34.55537 -58.70752 2428 ft 96 kts
2026-04-23 21:20 -34.54951 -58.70400 2306 ft 98 kts 46°
2026-04-23 21:21 -34.54482 -58.69782 2190 ft 100 kts 45°
2026-04-23 21:21 -34.53998 -58.69195 2074 ft 98 kts 45°
2026-04-23 21:21 -34.53519 -58.68617 1946 ft 95 kts 44°
2026-04-23 21:21 -34.53052 -58.68057 1817 ft 90 kts 44°
2026-04-23 21:22 -34.52635 -58.67556 1673 ft 82 kts 44°
2026-04-23 21:22 -34.52238 -58.67083 1530 ft 82 kts 44°
2026-04-23 21:22 -34.51809 -58.66578 1409 ft 88 kts 45°
2026-04-23 21:22 -34.51376 -58.66061 1287 ft 87 kts 45°
2026-04-23 21:23 -34.50947 -58.65546 1200 ft 84 kts 45°
2026-04-23 21:23 -34.50541 -58.65069 1196 ft 79 kts 44°
2026-04-23 21:23 -34.50128 -58.64596 1195 ft 83 kts 43°
2026-04-23 21:23 -34.49708 -58.64116 1113 ft 89 kts 46°
2026-04-23 21:24 -34.49277 -58.63580 980 ft 87 kts 45°
2026-04-23 21:24 -34.48850 -58.63079 856 ft 86 kts 45°
2026-04-23 21:24 -34.48410 -58.62558 742 ft 89 kts 45°
2026-04-23 21:24 -34.47971 -58.62042 629 ft 88 kts 45°
2026-04-23 21:25 -34.47523 -58.61512 496 ft 92 kts 44°
2026-04-23 21:25 -34.47069 -58.60983 374 ft 88 kts 45°
2026-04-23 21:25 -34.46630 -58.60465 254 ft 88 kts 46°
2026-04-23 21:25 -34.46337 -58.60125 165 ft 88 kts 45°
2026-04-23 21:26 -34.45800 -58.59498 25 ft 65 kts 43°
2026-04-23 21:26 -34.45639 -58.59307 21 ft 18 kts 46°
2026-04-23 21:26 -34.45610 -58.59266 21 ft 1 kts 326°
2026-04-23 21:26 -34.45634 -58.59299 21 ft 16 kts 204°
2026-04-23 21:27 -34.45720 -58.59277 21 ft 13 kts 149°
2026-04-23 21:27 -34.45743 -58.59260 21 ft 0 kts 149°